Starlink 11421

operational
NORAD ID: 61945 Int'l Des: 2024-209 Owner: SPXS Country: US Constellation: starlink
LEOCIRCULAR

About Starlink 11421

Description loading...

Live Position

Loading 3D Globe...

Upcoming Passes

Altitude History

Altitude vs Time

uPlot chart will show altitude changes over time

Two-Line Element Set

1 61945U 24209G 25304.23765307 .00199793 00000-0 16109-2 0 9996
2 61945 53.1563 289.5861 0001302 77.7131 282.4032 15.69764860 56342
Epoch: Oct 31, 2025 • Age: 15 hours

Current Status

Altitude 377.0 km
Velocity 7.68 km/s
Sub-Earth Point -50.27°S, 127.64°W
Launch Date Nov 14, 2024
Age 0.9 years
Type internet

Technical Details

Classification Payload
Mass 960.00 kg
Dry Mass 910.00 kg
Total Mass 960.00 kg
Length 0.30 m
Diameter 4.10 m
Span 29.00 m
Shape Box + pan
Manufacturer SPXS
Bus Type Starlink V2MD
Phase Status In Orbit
Owner/State SPXS/US

Large Constellations

Loading constellations...